• Join FlightAware (Why Join?)
  • Login
  • US Flag 
10:07PM EST


 

Airport Tracker/Info


-or-


 

Live Flight TrackerFlight Track Log ✈ DAL3784 ✈ 24-Apr-2013 ✈ KDTW - KATW

Flight Track Log - Related Links

Times and Time Zones

All times are in EDT time to prevent confusion due to time zone crossing. See the DAL3784 flight status page for this flight to view local times or setup timezone preferences in your user account.

Time Position Orientation Groundspeed Altitude Reporting Facility
EDT Latitude Longitude Course Direction KTS MPH feet Rate Location/Type
04:52PM 42.2358 -83.3306 18° North 159 183 1,500  Level FAA TRACON SMA TRACON (SMA)
04:52PM 42.2494 -83.3247 18° North 161 185 2,200 1,920 Climbing FAA TRACON SMA TRACON (SMA)
04:52PM 42.2678 -83.3158 20° North 196 226 2,800 2,100 Climbing FAA TRACON SMA TRACON (SMA)
04:53PM 42.2836 -83.3078 21° North 205 236 3,600 1,800 Climbing FAA TRACON SMA TRACON (SMA)
04:53PM 42.3014 -83.2994 19° North 236 272 4,000 1,800 Climbing FAA TRACON SMA TRACON (SMA)
04:53PM 42.3228 -83.2908 17° North 253 291 4,800 1,500 Climbing FAA TRACON SMA TRACON (SMA)
04:54PM 42.3492 -83.2792 18° North 258 297 5,000 300 Climbing FAA TRACON SMA TRACON (SMA)
04:54PM 42.3703 -83.2697 18° North 253 291 5,000  Level FAA TRACON SMA TRACON (SMA)
04:54PM 42.3936 -83.2597 18° North 247 284 5,000 900 Level FAA TRACON SMA TRACON (SMA)
04:55PM 42.4375 -83.2508 North 241 277 5,900 2,160 Climbing FAA TRACON SMA TRACON (SMA)
04:55PM 42.4611 -83.2558 351° North 236 272 7,200 2,880 Climbing FAA TRACON SMA TRACON (SMA)
04:56PM 42.4797 -83.2603 350° North 238 274 7,900 2,040 Climbing FAA TRACON SMA TRACON (SMA)
04:56PM 42.5053 -83.2664 350° North 274 315 8,600 1,980 Climbing FAA TRACON SMA TRACON (SMA)
04:56PM 42.5278 -83.2719 350° North 276 318 9,200 1,800 Climbing FAA TRACON SMA TRACON (SMA)
04:57PM 42.5519 -83.2781 349° North 290 334 9,800 2,100 Climbing FAA TRACON SMA TRACON (SMA)
04:57PM 42.5828 -83.2850 351° North 293 337 10,600 1,620 Climbing FAA TRACON SMA TRACON (SMA)
04:57PM 42.6094 -83.2917 350° North 311 358 10,900 1,020 Climbing FAA TRACON SMA TRACON (SMA)
04:58PM 42.6372 -83.2981 350° North 332 382 11,300 1,620 Climbing FAA TRACON SMA TRACON (SMA)
04:58PM 42.6731 -83.3061 351° North 338 389 12,000 1,800 Climbing FAA TRACON SMA TRACON (SMA)
04:58PM 42.7025 -83.3133 350° North 347 399 12,500 1,680 Climbing FAA TRACON SMA TRACON (SMA)
04:59PM 42.7325 -83.3206 350° North 352 405 13,100 1,560 Climbing FAA TRACON SMA TRACON (SMA)
04:59PM 42.7589 -83.3292 347° North 350 403 13,600 1,680 Climbing Cleveland Center
05:00PM 42.8542 -83.3531 350° North 350 403 15,400 1,500 Climbing Cleveland Center
05:01PM 42.9561 -83.3661 355° North 356 410 16,700 1,200 Climbing Cleveland Center
05:02PM 43.0644 -83.3681 359° North 368 423 17,900 1,200 Climbing Cleveland Center
05:03PM 43.1608 -83.4236 337° Northwest 363 418 19,100 1,140 Climbing Cleveland Center
05:04PM 43.2614 -83.4881 335° Northwest 374 430 20,200 1,020 Climbing Cleveland Center
05:05PM 43.3597 -83.5556 333° Northwest 388 447 21,200 900 Climbing Cleveland Center
05:07PM 43.5272 -83.7614 318° Northwest 389 448 23,100 840 Climbing Minneapolis Center
05:08PM 43.5617 -83.8994 289° West 385 443 24,000 420 Climbing Minneapolis Center
05:09PM 43.5986 -84.0417 290° West 392 451 24,000  Level Minneapolis Center
05:10PM 43.6428 -84.2147 289° West 398 458 24,000  Level Minneapolis Center
05:11PM 43.6783 -84.3569 289° West 395 455 24,000  Level Minneapolis Center
05:13PM 43.7139 -84.4983 289° West 393 452 24,000  Level Minneapolis Center
05:14PM 43.7489 -84.6375 289° West 388 447 24,000  Level Minneapolis Center
05:15PM 43.7828 -84.7775 289° West 387 445 24,000  Level Minneapolis Center
05:16PM 43.8072 -84.8925 286° West 389 448 24,000  Level Minneapolis Center
05:17PM 43.8386 -85.1231 281° West 384 442 24,000  Level Minneapolis Center
05:18PM 43.8544 -85.2433 280° West 391 450 24,000  Level Minneapolis Center
05:19PM 43.8806 -85.4272 281° West 403 464 24,000  Level Minneapolis Center
05:20PM 43.9019 -85.5817 281° West 408 470 24,000  Level Minneapolis Center
05:21PM 43.9267 -85.7656 281° West 408 470 24,000 -600 Level Minneapolis Center
05:22PM 43.9475 -85.9186 281° West 407 468 22,800 -1,260 Descending Minneapolis Center
05:23PM 43.9667 -86.0656 280° West 395 455 21,500 -1,440 Descending Minneapolis Center
05:24PM 43.9867 -86.2122 281° West 390 449 19,900 -1,380 Descending Minneapolis Center
05:25PM 44.0053 -86.3589 280° West 388 447 18,700 -1,260 Descending Minneapolis Center
05:26PM 44.0244 -86.5042 280° West 386 444 17,400 -1,440 Descending Minneapolis Center
05:27PM 44.0619 -86.6606 289° West 358 412 15,800 -1,680 Descending Minneapolis Center
05:28PM 44.0972 -86.7889 291° West 357 411 14,000 -1,800 Descending Minneapolis Center
05:29PM 44.1169 -86.9167 282° West 340 391 12,100 -1,020 Descending Minneapolis Center
05:30PM 44.1267 -87.0458 276° West 337 388 12,000 -60 Descending Minneapolis Center
05:31PM 44.1353 -87.1703 276° West 328 377 12,000  Level Minneapolis Center
05:32PM 44.1456 -87.3075 276° West 326 375 12,000  Level Minneapolis Center
05:33PM 44.1539 -87.4350 275° West 329 379 12,000 -780 Level Minneapolis Center
05:34PM 44.1636 -87.5694 276° West 298 343 10,500 -1,560 Descending Minneapolis Center
05:35PM 44.1706 -87.6692 276° West 268 308 8,800 -1,800 Descending Minneapolis Center
05:37PM 44.1772 -87.7639 276° West 253 291 6,800 -1,980 Descending Minneapolis Center
05:38PM 44.1831 -87.8581 275° West 246 283 4,800 -1,380 Descending Minneapolis Center
05:39PM 44.1892 -87.9525 275° West 245 282 4,000 -420 Descending Minneapolis Center
05:40PM 44.1958 -88.0644 275° West 248 285 4,000  Level Minneapolis Center
05:41PM 44.2019 -88.1589 275° West 247 284 4,000 -120 Level Minneapolis Center
05:42PM 44.2081 -88.2544 275° West 247 284 3,800 -180 Descending Minneapolis Center